Home > Weather > Spydeberg > Past weeks

Flag for Norway Weather for the Past 2 Weeks in Spydeberg, Norway

Now
43 °F

Light rain. Low clouds.


Feels Like: 34 °F
Forecast: 36 / 40 °F
Wind: 18 mph from South

Location: Rygge

Current Time: Feb 7, 2016 at 1:10:26 AM

Latest Report: Feb 6, 2016 at 11:50 PM


Visibility: 3 mi

Pressure: 29.39 "Hg

Humidity: 100%

Dew point: 43 °F

Location of SpydebergLocation

Historic Weather in Spydeberg — Graph

°F

Spydeberg Temperature Yesterday

Maximum temperature yesterday: 43 °F (at 9:20 AM)
Minimum temperature yesterday: 37 °F (at 12:20 AM)
Average temperature yesterday: 40 °F

High & Low Weather Summary for the Past Weeks

 TemperatureHumidityPressure
High43 °F (Jan 28, 12:20 PM)100% (Jan 23, 3:50 AM)30.18 "Hg (Jan 23, 3:50 AM)
Low25 °F (Feb 4, 5:50 AM)45% (Jan 31, 2:20 PM)28.77 "Hg (Feb 2, 6:20 PM)
Average35 °F85%29.50 "Hg
* Reported Jan 22 11:50 PM — Feb 6 11:50 PM, Spydeberg, Weather by CustomWeather, © 2016

Note: Actual official high and low records may vary slightly from our data, if they occured in-between our weather recording intervals... More about our weather records

Advertising

Spydeberg Weather History for the Previous 24 Hours

 ConditionsComfort  
Time TempWeatherWind HumidityBarometerVisibility
11:50 PM
Sat, Feb 6
43 °FLight rain. Low clouds.18 mph100%29.39 "Hg3 mi
11:20 PM43 °FLight rain. Low clouds.18 mph100%29.42 "Hg3 mi
10:50 PM41 °FLight rain. Low clouds.12 mph93%29.42 "Hg5 mi
9:50 PM37 °FLight rain. Passing clouds.7 mph100%29.45 "Hg3 mi
9:20 PM37 °FLight rain. Passing clouds.7 mph100%29.47 "Hg4 mi
8:50 PM37 °FPartly cloudy.6 mph100%29.47 "Hg5 mi
8:20 PM39 °FPassing clouds.5 mph93%29.50 "Hg4 mi
7:50 PM39 °FPassing clouds.8 mph93%29.50 "Hg4 mi
7:20 PM37 °FPassing clouds.6 mph93%29.50 "HgN/A
6:50 PM37 °FPartly cloudy.5 mph93%29.50 "Hg6 mi
6:20 PM37 °FPassing clouds.8 mph100%29.50 "HgN/A
5:50 PM37 °FPassing clouds.12 mph100%29.50 "Hg6 mi
5:20 PM37 °FPassing clouds.12 mph100%29.50 "HgN/A
4:50 PM37 °FPassing clouds.5 mph93%29.50 "HgN/A
4:20 PM37 °FPartly sunny.8 mph100%29.50 "HgN/A
3:50 PM39 °FPartly sunny.9 mph93%29.50 "Hg6 mi
3:20 PM39 °FPartly sunny.10 mph93%29.47 "Hg4 mi
2:50 PM39 °FLow clouds.14 mph100%29.47 "Hg4 mi
2:20 PM39 °FPartly sunny.15 mph100%29.47 "Hg4 mi
1:50 PM39 °FPartly sunny.15 mph100%29.50 "Hg4 mi
1:20 PM39 °FPartly sunny.15 mph100%29.47 "Hg4 mi
12:50 PM39 °FFog.15 mph100%29.47 "Hg3 mi
12:20 PM41 °FFog.16 mph100%29.47 "Hg3 mi
11:50 AM41 °FFog.16 mph100%29.47 "Hg3 mi
11:20 AM41 °FLight rain. Fog.20 mph100%29.47 "Hg3 mi
10:50 AM41 °FLight rain. Fog.18 mph100%29.47 "Hg2 mi
10:20 AM41 °FLight rain. Fog.23 mph100%29.47 "Hg2 mi
9:50 AM41 °FLight rain. Partly sunny.23 mph100%29.47 "Hg4 mi
9:20 AM43 °FDrizzle. Partly sunny.26 mph93%29.47 "Hg4 mi
8:50 AM41 °FLight rain. Partly sunny.21 mph100%29.47 "Hg3 mi
8:20 AM41 °FFog.23 mph100%29.47 "Hg3 mi
7:50 AM41 °FFog.23 mph100%29.50 "Hg2 mi
7:20 AM41 °FFog.21 mph100%29.50 "Hg1 mi
6:50 AM41 °FFog.20 mph100%29.53 "Hg2 mi
6:20 AM41 °FLight rain. Passing clouds.21 mph100%29.53 "Hg2 mi
5:50 AM41 °FDrizzle. Low clouds.21 mph100%29.53 "Hg2 mi
4:50 AM41 °FFog.18 mph100%29.56 "Hg2 mi
4:20 AM39 °FDrizzle. Low clouds.14 mph100%29.59 "Hg2 mi
3:50 AM39 °FLight rain. Low clouds.16 mph100%29.62 "Hg1 mi
2:50 AM39 °FFog.13 mph100%29.65 "Hg0 mi
2:20 AM39 °FDrizzle. Dense fog.13 mph100%29.65 "Hg0 mi
1:20 AM39 °FLight rain. Low clouds.14 mph100%29.68 "Hg0 mi
Weather by CustomWeather, © 2016

See weather overviewHow to use our weather pages